Regional Weather Roundup
Issued by NWS

Home | Current Version | Previous Version | Text Only | Print | Product List | Glossary Off
Versions: 1 2 3 4 5 6 7 8 9 10 11 12 13 14 15 16 17 18 19 20 21 22 23 24 25 26 27 28 29 30 31 32 33 34 35 36 37 38 39 40 41 42 43 44 45 46 47 48 49 50

370
ASUS43 KDTX 061801
RWRMI
MICHIGAN HOURLY REGIONAL WEATHER ROUNDUP
NATIONAL WEATHER SERVICE DETROIT/PONTIAC MI
100 PM EST TUE DEC 06 2016

NOTE: "FAIR" INDICATES FEW OR NO CLOUDS BELOW 12,000 FEET WITH NO
SIGNIFICANT WEATHER AND/OR OBSTRUCTION TO VISIBILITY.

MIZ047>049-052>055-059>063-066>070-074>076-081>083-061900-
SOUTHEAST LOWER MICHIGAN

CITY           SKY/WX    TMP DP  RH WIND       PRES   REMARKS
ADRIAN         LGT RAIN  36  35  96 E9        29.70F FOG     WCI  29
6HR MIN TEMP:  32; 6HR MAX TEMP:  38; 6HR PCP:  0.08;

ALMA           CLOUDY    36  33  90 NE7       29.75F FOG     WCI  30
ANN ARBOR      RAIN      39  35  86 NE9       29.70F FOG     WCI  33
BAD AXE        CLOUDY    39  32  75 SE10G20   29.76F WCI  32
CARO           CLOUDY    38  33  81 E9        29.73F WCI  32
DETROIT CITY   CLOUDY    41  35  79 E12       29.74F
6HR MIN TEMP:  37; 6HR MAX TEMP:  41;

DETROIT        LGT RAIN  41  34  76 E8        29.73F
6HR MIN TEMP:  36; 6HR MAX TEMP:  41; 6HR PCP: TRACE;

FLINT          CLOUDY    39  34  82 E12       29.72F WCI  32
6HR MIN TEMP:  28; 6HR MAX TEMP:  39;

GROSSE ILE     LGT RAIN  40  36  85 E5        29.71F
6HR MIN TEMP:  34; 6HR MAX TEMP:  41; 6HR PCP:  0.01;

HILLSDALE      LGT RAIN  34  32  93 E5        29.68F WCI  30
HOWELL         DRIZZLE   38  34  84 E10       29.69F WCI  31

CITY           SKY/WX    TMP DP  RH WIND       PRES   REMARKS
JACKSON        LGT RAIN  39  34  82 E5        29.70F
6HR MIN TEMP:  34; 6HR MAX TEMP:  39;

LAMBERTVILLE   LGT RAIN  39  36  88 E5        29.70F
6HR MIN TEMP:  39; 6HR MAX TEMP:  41;

LANSING        CLOUDY    40  33  76 E12       29.72F WCI  33
6HR MIN TEMP:  29; 6HR MAX TEMP:  40;

LAPEER         NOT AVBL
MASON          CLOUDY    37  34  88 CALM      29.71F
MONROE         LGT RAIN  39  37  91 E8        29.70F WCI  34
6HR MIN TEMP:  39; 6HR MAX TEMP:  42; 6HR PCP:  0.03;

MT. CLEMENS    CLOUDY    39  36  89 E10       29.72F WCI  33
6HR MIN TEMP:  35; 6HR MAX TEMP:  40; 6HR PCP: TRACE;

PONTIAC        LGT RAIN  38  34  85 E10       29.71F WCI  31
6HR MIN TEMP:  34; 6HR MAX TEMP:  38; 6HR PCP: TRACE;

PORT HOPE        N/A     40  32  73 SE21      29.77F WCI  30
6HR MIN TEMP:  38; 6HR MAX TEMP:  41;

PORT HURON     CLOUDY    37  32  81 E8        29.76F WCI  31
TRI CITIES     CLOUDY    38  35  89 NE8       29.75F WCI  32
6HR MIN TEMP:  29; 6HR MAX TEMP:  38;

MIDLAND        PTSUNNY   39  32  75 NE8       29.75F WCI  34
TROY           CLOUDY    40  34  79 E8        29.76F WCI  35
SAGINAW HB     PTSUNNY   37  32  81 E8        29.73F WCI  31
$$
MIZ043>046-050>051-056>058-064>065-071>073-077>080-061900-
SOUTHWEST LOWER MICHIGAN

CITY           SKY/WX    TMP DP  RH WIND       PRES   REMARKS
BATTLE CREEK   CLOUDY    39  34  82 SE6       29.71F WCI  35
6HR MIN TEMP:  32; 6HR MAX TEMP:  39;

BENTON HARBOR  CLOUDY    39  30  70 SE5       29.73F
6HR MIN TEMP:  30; 6HR MAX TEMP:  39;

BIG RAPIDS     CLOUDY    38  32  77 SE10      29.72F WCI  31
6HR MIN TEMP:  32; 6HR MAX TEMP:  38;

COLDWATER      CLOUDY    39  33  78 E5        29.71S
6HR MIN TEMP:  34; 6HR MAX TEMP:  40;

FREMONT        PTSUNNY   39  30  70 SE8       29.73F WCI  33
HOLLAND        MOSUNNY   37  32  82 E6        29.74F WCI  32
6HR MIN TEMP:  29; 6HR MAX TEMP:  38;

GRAND RAPIDS   CLOUDY    35  31  85 E7        29.74S FOG     WCI  29
6HR MIN TEMP:  29; 6HR MAX TEMP:  35;

IONIA          CLOUDY    34  32  92 N7        29.73F FOG     WCI  28
6HR MIN TEMP:  27; 6HR MAX TEMP:  34;

KALAMAZOO      CLOUDY    38  31  76 W5        29.74R WCI  34
6HR MIN TEMP:  31; 6HR MAX TEMP:  39;

LUDINGTON      SUNNY     41  32  70 SE10      29.72F
6HR MIN TEMP:  31; 6HR MAX TEMP:  41;

MARSHALL       CLOUDY    39  35  85 E9        29.70F WCI  32
6HR MIN TEMP:  32; 6HR MAX TEMP:  39;

MOUNT PLEASANT PTSUNNY   38  33  83 E7        29.74F WCI  32
6HR MIN TEMP:  28; 6HR MAX TEMP:  38;

MUSKEGON       CLOUDY    41  32  70 SE8       29.74F
6HR MIN TEMP:  31; 6HR MAX TEMP:  41;

SOUTH HAVEN    PTSUNNY   38  33  82 CALM      29.73F
$$
MIZ016>042-061900-
NORTHERN LOWER MICHIGAN

CITY           SKY/WX    TMP DP  RH WIND       PRES   REMARKS
ALPENA         CLOUDY    41  31  67 SE13      29.81F
6HR MIN TEMP:  30; 6HR MAX TEMP:  41;

BEAVER ISLAND  PTSUNNY   41  33  73 SE18      29.74F
6HR MIN TEMP:  37; 6HR MAX TEMP:  41;

BELLAIRE       MOSUNNY   40  32  71 SE9G18    29.75F WCI  35
6HR MIN TEMP:  33; 6HR MAX TEMP:  40;

CADILLAC       CLOUDY    35  31  86 SE9G16    29.72F WCI  27
CHARLEVOIX     PTSUNNY   40  31  69 SE14      29.77F WCI  33
6HR MIN TEMP:  34; 6HR MAX TEMP:  40;

FRANKFORT      SUNNY     42  32  68 SE12      29.72F
GAYLORD        PTSUNNY   37  30  75 SE15      29.74F WCI  28
6HR MIN TEMP:  30; 6HR MAX TEMP:  37;

GRAYLING       PTSUNNY   37  32  82 SE10G22   29.76F WCI  30
6HR MIN TEMP:  27; 6HR MAX TEMP:  37;

HARBOR SPRINGS PTSUNNY   41  32  69 SE10      29.76F
HOUGHTON LAKE  CLOUDY    37  31  78 SE12      29.74F WCI  29
6HR MIN TEMP:  29; 6HR MAX TEMP:  37;

MANISTEE       SUNNY     42  30  62 S10       29.72F
OSCODA         CLOUDY    42  32  67 E12G17    29.79F
6HR MIN TEMP:  30; 6HR MAX TEMP:  42;

PELLSTON       PTSUNNY   41  32  70 SE14      29.78F
6HR MIN TEMP:  32; 6HR MAX TEMP:  41;

ROGERS CITY    PTSUNNY   41  33  72 SE14      29.80F
TRAVERSE CITY  MOSUNNY   42  30  62 SE10G16   29.74F
6HR MIN TEMP:  34; 6HR MAX TEMP:  42;

$$
MIZ007>008-015-061900-
EASTERN UPPER MICHIGAN

CITY           SKY/WX    TMP DP  RH WIND       PRES   REMARKS
KINROSS        CLOUDY    39  34  82 SE14      29.78F WCI  31
MACKINAC ISLAN CLOUDY    39  32  76 SE9       29.79F WCI  33
6HR MIN TEMP:  35; 6HR MAX TEMP:  40;

NEWBERRY       CLOUDY    37  33  87 SE14G22   29.75F WCI  28
6HR MIN TEMP:  34; 6HR MAX TEMP:  37;

S. S. MARIE    CLOUDY    38  34  85 E8        29.80F WCI  32
6HR MIN TEMP:  35; 6HR MAX TEMP:  38; 6HR PCP:  0.03;

MUNISING         N/A     40  33  76 S14G22    29.67F WCI  32
6HR MIN TEMP:  38; 6HR MAX TEMP:  40;

$$
MIZ004>006-011>014-085-061900-
CENTRAL UPPER MICHIGAN

CITY           SKY/WX    TMP DP  RH WIND       PRES   REMARKS
MANISTIQUE     MOSUNNY   40  33  75 S20G30    29.72F WCI  31
6HR MIN TEMP:  39; 6HR MAX TEMP:  41;

ESCANABA       CLOUDY    40  32  73 S13G20    29.69F WCI  32
6HR MIN TEMP:  40; 6HR MAX TEMP:  41;

MENOMINEE      CLOUDY    39  31  72 S13G22    29.68F WCI  31
6HR MIN TEMP:  39; 6HR MAX TEMP:  40;

SAWYER-GWINN   CLOUDY    36  32  87 S16       29.64F WCI  26
$$
MIZ001>003-009>011-084-061900-
WESTERN UPPER MICHIGAN

CITY           SKY/WX    TMP DP  RH WIND       PRES   REMARKS
IRON MOUNTAIN  CLOUDY    37  30  75 S15G22    29.62F WCI  28
6HR MIN TEMP:  36; 6HR MAX TEMP:  38;

HOUGHTON       CLOUDY    38  29  70 S12       29.57F WCI  30
6HR MIN TEMP:  36; 6HR MAX TEMP:  39;

COPPER HARBOR    N/A     41  33  73 S12G28    29.59F
6HR MIN TEMP:  40; 6HR MAX TEMP:  41;

IRONWOOD       FLURRIES  31  28  89 SW16G22   29.56F WCI  20
6HR MIN TEMP:  31; 6HR MAX TEMP:  34; 6HR PCP:  0.01;

$$

ABBREVIATIONS USED IN REMARKS
   TC - TEMPERATURE IN CELSIUS
  WCI - WIND CHILL INDEX
   HX - HEAT INDEX
  VSB - VISIBILITY





USA.gov is the U.S. government's official web portal to all federal, state and local government web resources and services.